| time (UTC) | temp F | wind direction | speed MPH | gust MPH | rain 1hr in | rain 24hr in | rain mn in | humidity % | barometer mb |
| 20260831115003 | 64 | 323 | 5.0 | 11.0 | 0.00 | 0.32 | 0.08 | 75 | 1012.9 |
| 20260831114003 | 65 | 317 | 5.0 | 14.0 | 0.00 | 0.32 | 0.08 | 75 | 1012.7 |
| 20260831113008 | 65 | 309 | 5.0 | 13.0 | 0.00 | 0.32 | 0.08 | 74 | 1012.7 |
| 20260831112004 | 64 | 314 | 5.0 | 14.0 | 0.00 | 0.32 | 0.08 | 77 | 1012.4 |
| 20260831111008 | 63 | 314 | 5.0 | 11.0 | 0.00 | 0.32 | 0.08 | 81 | 1012.5 |
| 20260831110008 | 60 | 321 | 4.0 | 10.0 | 0.00 | 0.32 | 0.08 | 84 | 1012.5 |
| 20260831105008 | 61 | 312 | 5.0 | 11.0 | 0.00 | 0.32 | 0.08 | 82 | 1012.0 |
| 20260831104008 | 63 | 322 | 5.0 | 9.0 | 0.00 | 0.32 | 0.08 | 81 | 1011.9 |
| 20260831103003 | 62 | 321 | 5.0 | 12.0 | 0.00 | 0.32 | 0.08 | 83 | 1011.6 |
| 20260831102008 | 63 | 312 | 5.0 | 11.0 | 0.00 | 0.32 | 0.08 | 84 | 1011.5 |
| 20260831101003 | 61 | 316 | 4.0 | 12.0 | 0.00 | 0.32 | 0.08 | 86 | 1011.3 |
| 20260831100008 | 61 | 319 | 4.0 | 10.0 | 0.00 | 0.32 | 0.08 | 86 | 1011.5 |
| 20260831095008 | 62 | 326 | 5.0 | 15.0 | 0.00 | 0.33 | 0.08 | 89 | 1011.2 |
| 20260831094009 | 59 | 321 | 5.0 | 13.0 | 0.00 | 0.34 | 0.08 | 92 | 1011.1 |
| 20260831093003 | 58 | 332 | 5.0 | 12.0 | 0.00 | 0.34 | 0.08 | 95 | 1010.9 |
| 20260831092003 | 58 | 322 | 4.0 | 9.0 | 0.00 | 0.34 | 0.08 | 99 | 1010.8 |
| 20260831091005 | 57 | 325 | 4.0 | 9.0 | 0.00 | 0.34 | 0.08 | 99 | 1010.6 |
| 20260831090004 | 58 | 325 | 4.0 | 10.0 | 0.00 | 0.34 | 0.08 | 99 | 1010.4 |
| 20260831085008 | 57 | 333 | 5.0 | 11.0 | 0.00 | 0.34 | 0.08 | 99 | 1010.2 |
| 20260831084009 | 57 | 328 | 4.0 | 10.0 | 0.00 | 0.34 | 0.08 | 99 | 1010.1 |
| 20260831083003 | 57 | 329 | 4.0 | 9.0 | 0.00 | 0.34 | 0.08 | 99 | 1009.8 |
| 20260831082003 | 55 | 329 | 4.0 | 7.0 | 0.00 | 0.34 | 0.08 | 99 | 1009.8 |
| 20260831081003 | 55 | 324 | 4.0 | 8.0 | 0.00 | 0.34 | 0.08 | 99 | 1009.8 |
| 20260831080004 | 55 | 322 | 4.0 | 8.0 | 0.00 | 0.34 | 0.08 | 99 | 1009.4 |
| 20260831075009 | 54 | 326 | 4.0 | 8.0 | 0.00 | 0.34 | 0.08 | 99 | 1009.2 |
| 20260831074008 | 54 | 327 | 4.0 | 7.0 | 0.00 | 0.34 | 0.08 | 99 | 1009.1 |
| 20260831073003 | 54 | 324 | 4.0 | 9.0 | 0.00 | 0.34 | 0.08 | 99 | 1008.7 |
| 20260831072218 | 54 | 326 | 4.0 | 9.0 | 0.00 | 0.34 | 0.08 | 99 | 1008.5 |
| 20260831071008 | 53 | 328 | 4.0 | 8.0 | 0.00 | 0.34 | 0.08 | 99 | 1008.5 |
| 20260831070008 | 53 | 327 | 4.0 | 7.0 | 0.00 | 0.34 | 0.08 | 99 | 1008.3 |
| 20260831065003 | 53 | 331 | 3.0 | 7.0 | 0.00 | 0.34 | 0.08 | 99 | 1008.1 |
| 20260831064003 | 52 | 326 | 3.0 | 7.0 | 0.00 | 0.34 | 0.08 | 99 | 1008.0 |
| 20260831063003 | 51 | 324 | 3.0 | 7.0 | 0.00 | 0.34 | 0.08 | 99 | 1007.9 |
| 20260831062009 | 51 | 326 | 3.0 | 6.0 | 0.00 | 0.34 | 0.08 | 99 | 1007.5 |
| 20260831061008 | 51 | 326 | 3.0 | 7.0 | 0.00 | 0.34 | 0.08 | 99 | 1007.3 |
| 20260831060217 | 51 | 325 | 3.0 | 6.0 | 0.00 | 0.34 | 0.08 | 99 | 1007.1 |
| 20260831055003 | 51 | 329 | 4.0 | 6.0 | 0.00 | 0.34 | 0.08 | 99 | 1007.1 |
| 20260831054008 | 51 | 325 | 4.0 | 7.0 | 0.00 | 0.34 | 0.08 | 99 | 1006.8 |
| 20260831053005 | 51 | 326 | 4.0 | 7.0 | 0.00 | 0.34 | 0.08 | 99 | 1006.7 |
| 20260831052003 | 50 | 323 | 4.0 | 7.0 | 0.00 | 0.34 | 0.08 | 99 | 1006.5 |
| 20260831051008 | 50 | 326 | 4.0 | 8.0 | 0.00 | 0.34 | 0.08 | 99 | 1006.1 |
| 20260831050004 | 50 | 331 | 4.0 | 8.0 | 0.00 | 0.34 | 0.08 | 99 | 1006.2 |
| 20260831045003 | 50 | 318 | 3.0 | 7.0 | 0.00 | 0.34 | 0.08 | 99 | 1006.0 |
| 20260831044003 | 50 | 320 | 4.0 | 7.0 | 0.00 | 0.34 | 0.08 | 99 | 1005.5 |
| 20260831043008 | 50 | 322 | 4.0 | 7.0 | 0.00 | 0.34 | 0.08 | 99 | 1005.5 |
| 20260831042218 | 50 | 325 | 3.0 | 7.0 | 0.00 | 0.34 | 0.08 | 99 | 1005.8 |
| 20260831041003 | 50 | 321 | 4.0 | 9.0 | 0.00 | 0.34 | 0.08 | 99 | 1005.5 |
| 20260831040003 | 50 | 315 | 3.0 | 8.0 | 0.00 | 0.34 | 0.08 | 99 | 1005.5 |
| 20260831035003 | 50 | 316 | 3.0 | 7.0 | 0.00 | 0.34 | 0.08 | 99 | 1005.4 |
| 20260831034003 | 50 | 321 | 3.0 | 6.0 | 0.00 | 0.34 | 0.08 | 99 | 1005.2 |
| 20260831033003 | 50 | 320 | 3.0 | 7.0 | 0.00 | 0.34 | 0.08 | 99 | 1005.2 |
| 20260831032008 | 50 | 314 | 3.0 | 6.0 | 0.00 | 0.34 | 0.08 | 99 | 1005.3 |
| 20260831031003 | 51 | 315 | 3.0 | 6.0 | 0.00 | 0.34 | 0.08 | 99 | 1005.3 |
| 20260831030003 | 51 | 315 | 3.0 | 7.0 | 0.00 | 0.34 | 0.08 | 99 | 1005.3 |
| 20260831025003 | 51 | 317 | 3.0 | 7.0 | 0.00 | 0.34 | 0.08 | 99 | 1005.2 |
| 20260831024218 | 51 | 317 | 3.0 | 6.0 | 0.00 | 0.34 | 0.08 | 99 | 1005.2 |
| 20260831023004 | 51 | 312 | 3.0 | 9.0 | 0.00 | 0.34 | 0.08 | 99 | 1005.0 |
| 20260831022003 | 51 | 317 | 4.0 | 8.0 | 0.00 | 0.34 | 0.08 | 99 | 1004.9 |
| 20260831021003 | 51 | 320 | 3.0 | 8.0 | 0.00 | 0.34 | 0.08 | 99 | 1004.9 |
| 20260831020003 | 51 | 314 | 3.0 | 6.0 | 0.00 | 0.34 | 0.08 | 99 | 1004.7 |
| 20260831015003 | 51 | 309 | 3.0 | 7.0 | 0.00 | 0.34 | 0.08 | 99 | 1004.7 |
| 20260831014003 | 52 | 316 | 3.0 | 7.0 | 0.00 | 0.34 | 0.08 | 99 | 1004.5 |
| 20260831013003 | 52 | 319 | 3.0 | 6.0 | 0.00 | 0.34 | 0.08 | 99 | 1004.6 |
| 20260831012217 | 52 | 321 | 2.0 | 6.0 | 0.00 | 0.34 | 0.08 | 99 | 1004.4 |
| 20260831011008 | 52 | 317 | 3.0 | 7.0 | 0.01 | 0.34 | 0.08 | 99 | 1004.4 |
| 20260831010010 | 52 | 311 | 3.0 | 7.0 | 0.01 | 0.34 | 0.08 | 99 | 1004.3 |
| 20260831005008 | 52 | 314 | 3.0 | 7.0 | 0.02 | 0.34 | 0.08 | 99 | 1004.3 |
| 20260831001004 | 52 | 322 | 3.0 | 8.0 | 0.06 | 0.33 | 0.07 | 98 | 1003.9 |
| 20260831000003 | 52 | 316 | 3.0 | 11.0 | 0.07 | 0.33 | 0.07 | 98 | 1003.7 |
| 20260830235223 | 52 | 328 | 3.0 | 11.0 | 0.09 | 0.32 | 0.06 | 98 | 1003.9 |
| 20260830234438 | 52 | 306 | 2.0 | 6.0 | 0.10 | 0.30 | 0.04 | 98 | 1004.0 |
| 20260830233008 | 52 | 335 | 3.0 | 8.0 | 0.11 | 0.28 | 0.02 | 98 | 1004.2 |
| 20260830232223 | 52 | 325 | 4.0 | 10.0 | 0.12 | 0.28 | 0.02 | 98 | 1004.1 |
| 20260830231003 | 52 | 313 | 2.0 | 5.0 | 0.12 | 0.28 | 0.02 | 97 | 1004.0 |
| 20260830230008 | 52 | 314 | 2.0 | 4.0 | 0.11 | 0.26 | 0.00 | 97 | 1003.7 |
| 20260830225003 | 53 | 318 | 2.0 | 3.0 | 0.06 | 0.22 | 0.22 | 97 | 1004.2 |
| 20260830224223 | 53 | 320 | 2.0 | 3.0 | 0.04 | 0.20 | 0.20 | 96 | 1004.0 |
| 20260830223222 | 53 | 319 | 3.0 | 6.0 | 0.02 | 0.17 | 0.18 | 96 | 1004.0 |
| 20260830222003 | 53 | 332 | 3.0 | 8.0 | 0.00 | 0.16 | 0.16 | 95 | 1004.1 |
| 20260830221222 | 53 | 329 | 3.0 | 6.0 | 0.00 | 0.16 | 0.16 | 96 | 1004.1 |
| 20260830220222 | 53 | 331 | 3.0 | 6.0 | 0.00 | 0.16 | 0.16 | 97 | 1004.2 |
| 20260830215013 | 54 | 327 | 4.0 | 9.0 | 0.00 | 0.16 | 0.16 | 97 | 1004.2 |
| 20260830214003 | 56 | 327 | 3.0 | 8.0 | 0.00 | 0.16 | 0.16 | 99 | 1004.3 |
| 20260830213009 | 56 | 331 | 3.0 | 8.0 | 0.00 | 0.16 | 0.16 | 99 | 1004.4 |
| 20260830212008 | 56 | 324 | 3.0 | 7.0 | 0.00 | 0.16 | 0.16 | 99 | 1004.1 |
| 20260830211218 | 56 | 329 | 3.0 | 7.0 | 0.00 | 0.16 | 0.16 | 99 | 1004.1 |
| 20260830210010 | 57 | 328 | 3.0 | 9.0 | 0.00 | 0.16 | 0.16 | 98 | 1003.8 |
| 20260830205222 | 56 | 327 | 3.0 | 9.0 | 0.00 | 0.17 | 0.16 | 98 | 1003.8 |
| 20260830204003 | 57 | 332 | 3.0 | 9.0 | 0.00 | 0.17 | 0.16 | 98 | 1004.0 |
| 20260830203222 | 57 | 328 | 3.0 | 8.0 | 0.00 | 0.17 | 0.16 | 98 | 1003.8 |
| 20260830202008 | 57 | 324 | 3.0 | 7.0 | 0.00 | 0.17 | 0.16 | 98 | 1004.0 |
| 20260830201008 | 57 | 317 | 2.0 | 8.0 | 0.00 | 0.17 | 0.16 | 97 | 1004.1 |
| 20260830200003 | 57 | 316 | 2.0 | 6.0 | 0.00 | 0.17 | 0.16 | 97 | 1004.1 |
| 20260830195008 | 57 | 310 | 3.0 | 9.0 | 0.00 | 0.17 | 0.16 | 97 | 1003.9 |
| 20260830194013 | 57 | 307 | 2.0 | 6.0 | 0.05 | 0.17 | 0.16 | 97 | 1004.3 |
| 20260830193008 | 57 | 314 | 2.0 | 5.0 | 0.07 | 0.17 | 0.16 | 97 | 1004.5 |
| 20260830192009 | 57 | 306 | 2.0 | 5.0 | 0.07 | 0.17 | 0.16 | 96 | 1004.4 |
| 20260830191008 | 57 | 314 | 3.0 | 4.0 | 0.07 | 0.17 | 0.16 | 96 | 1004.5 |
| 20260830190008 | 58 | 314 | 3.0 | 6.0 | 0.07 | 0.17 | 0.16 | 95 | 1004.4 |
| 20260830185004 | 58 | 312 | 3.0 | 4.0 | 0.07 | 0.17 | 0.15 | 95 | 1004.6 |
| 20260830184008 | 58 | 311 | 2.0 | 6.0 | 0.03 | 0.13 | 0.11 | 94 | 1004.9 |
| 20260830183008 | 59 | 311 | 3.0 | 5.0 | 0.00 | 0.10 | 0.08 | 93 | 1004.8 |
| 20260830182008 | 59 | 304 | 2.0 | 4.0 | 0.00 | 0.10 | 0.08 | 93 | 1004.9 |
| 20260830181009 | 59 | 309 | 3.0 | 5.0 | 0.00 | 0.10 | 0.08 | 94 | 1005.0 |
| 20260830180008 | 59 | 309 | 3.0 | 5.0 | 0.00 | 0.10 | 0.08 | 95 | 1005.1 |
| 20260830175008 | 59 | 312 | 2.0 | 5.0 | 0.00 | 0.10 | 0.08 | 96 | 1005.1 |
| 20260830174008 | 58 | 304 | 2.0 | 5.0 | 0.00 | 0.10 | 0.08 | 95 | 1005.1 |
| 20260830173008 | 58 | 312 | 3.0 | 8.0 | 0.00 | 0.10 | 0.08 | 96 | 1005.5 |
| 20260830172004 | 58 | 317 | 3.0 | 5.0 | 0.00 | 0.10 | 0.08 | 96 | 1005.5 |
| 20260830171008 | 58 | 316 | 3.0 | 5.0 | 0.00 | 0.10 | 0.08 | 96 | 1005.7 |
| 20260830170008 | 58 | 317 | 2.0 | 5.0 | 0.01 | 0.10 | 0.08 | 96 | 1005.5 |
| 20260830165004 | 58 | 320 | 3.0 | 6.0 | 0.06 | 0.10 | 0.08 | 96 | 1005.3 |
| 20260830164008 | 58 | 316 | 3.0 | 7.0 | 0.06 | 0.10 | 0.08 | 95 | 1005.3 |
| 20260830163009 | 57 | 316 | 2.0 | 7.0 | 0.06 | 0.10 | 0.08 | 94 | 1005.9 |
| 20260830162008 | 58 | 319 | 3.0 | 7.0 | 0.06 | 0.10 | 0.08 | 93 | 1006.1 |
| 20260830161008 | 59 | 320 | 2.0 | 7.0 | 0.06 | 0.10 | 0.08 | 91 | 1006.0 |
| 20260830160008 | 61 | 310 | 3.0 | 6.0 | 0.06 | 0.09 | 0.07 | 88 | 1005.8 |
| 20260830155008 | 62 | 301 | 3.0 | 6.0 | 0.00 | 0.04 | 0.02 | 86 | 1005.8 |
| 20260830154008 | 63 | 297 | 3.0 | 6.0 | 0.00 | 0.04 | 0.02 | 82 | 1005.9 |
| 20260830153008 | 64 | 295 | 3.0 | 8.0 | 0.00 | 0.04 | 0.02 | 79 | 1005.7 |
| 20260830152008 | 64 | 300 | 3.0 | 8.0 | 0.00 | 0.04 | 0.02 | 78 | 1005.5 |
| 20260830151008 | 64 | 306 | 3.0 | 7.0 | 0.00 | 0.04 | 0.02 | 77 | 1005.5 |
| 20260830150010 | 66 | 298 | 3.0 | 7.0 | 0.00 | 0.04 | 0.02 | 75 | 1005.9 |
| 20260830145217 | 66 | 299 | 4.0 | 9.0 | 0.00 | 0.04 | 0.02 | 75 | 1006.1 |
| 20260830144217 | 65 | 304 | 3.0 | 6.0 | 0.00 | 0.04 | 0.02 | 77 | 1006.2 |
| 20260830143008 | 65 | 306 | 4.0 | 9.0 | 0.00 | 0.04 | 0.02 | 75 | 1006.3 |
| 20260830142225 | 65 | 311 | 4.0 | 9.0 | 0.00 | 0.04 | 0.02 | 74 | 1006.5 |
| 20260830141003 | 66 | 308 | 4.0 | 7.0 | 0.00 | 0.04 | 0.02 | 75 | 1006.6 |
| 20260830140003 | 66 | 305 | 4.0 | 9.0 | 0.00 | 0.04 | 0.02 | 74 | 1006.5 |
| 20260830135217 | 66 | 301 | 4.0 | 8.0 | 0.00 | 0.04 | 0.02 | 72 | 1006.7 |
| 20260830134008 | 67 | 303 | 3.0 | 7.0 | 0.00 | 0.04 | 0.02 | 75 | 1006.7 |
| 20260830133008 | 69 | 299 | 3.0 | 7.0 | 0.00 | 0.04 | 0.02 | 70 | 1006.6 |
| 20260830132004 | 66 | 297 | 3.0 | 6.0 | 0.00 | 0.04 | 0.02 | 77 | 1006.8 |
| 20260830131223 | 67 | 305 | 3.0 | 6.0 | 0.00 | 0.04 | 0.02 | 77 | 1006.7 |
| 20260830130004 | 66 | 302 | 3.0 | 6.0 | 0.00 | 0.04 | 0.02 | 77 | 1006.9 |
| 20260830125217 | 65 | 304 | 3.0 | 6.0 | 0.00 | 0.04 | 0.02 | 82 | 1007.0 |
| 20260830124003 | 65 | 302 | 3.0 | 6.0 | 0.00 | 0.04 | 0.02 | 82 | 1007.0 |
| 20260830123008 | 64 | 306 | 3.0 | 6.0 | 0.00 | 0.04 | 0.02 | 85 | 1006.9 |
| 20260830122008 | 64 | 310 | 3.0 | 6.0 | 0.00 | 0.04 | 0.02 | 86 | 1007.2 |
| 20260830121011 | 64 | 314 | 4.0 | 7.0 | 0.00 | 0.04 | 0.02 | 84 | 1007.4 |
| 20260830120019 | 63 | 313 | 4.0 | 7.0 | 0.00 | 0.04 | 0.02 | 86 | 1007.4 |